Weather History for Ellensburg, WA

Change the Weather History Date:

Saturday, April 27, 2013

  Actual Average (KYKM) Record (KYKM)
Temperature  
Mean Temperature 58 °F -  
Max Temperature 69 °F 67 °F 87 °F (1987)
Min Temperature 48 °F - 25 °F (1999)
Degree Days  
Heating Degree Days 7 13  
Month to date heating degree days 438  
Since 1 July heating degree days 5642  
Cooling Degree Days 0 0  
Month to date cooling degree days 0  
Year to date cooling degree days 0  
Growing Degree Days 8 (Base 50)    
Moisture  
Dew Point 33 °F    
Average Humidity 41    
Maximum Humidity 59    
Minimum Humidity 23    
Precipitation  
Precipitation 0.00 in 0.02 in 0.42 in (1962)
Month to date precipitation 0.49  
Year to date precipitation 3.03  
Snow  
Snow 0.00 in 0.00 in 0.00 in (2002)
Month to date snowfall 0.0  
Year to date snowfall 8.6  
Since 1 July snowfall 21.6  
Snow Depth -    
Sea Level Pressure  
Sea Level Pressure 30.09 in    
Wind  
Wind Speed 18 mph (NW)    
Max Wind Speed 37 mph    
Max Gust Speed 44 mph    
Visibility 10 miles    
Events      
T = Trace of Precipitation, MM = Missing Value Source: NWS Daily Summary

Daily Weather History Graph

Daily Weather History Graph

Search for Another Location

Airport:

Trip Planner

Search our weather history database for the weather conditions in past years. The results will help you decide how hot, cold, wet, or windy it might be!

Date:

Astronomy

Apr. 27, 2013 Rise Set
Actual Time 5:52 AM PDT 8:07 PM PDT
Civil Twilight 5:19 AM PDT 8:41 PM PDT
Nautical Twilight 4:37 AM PDT 9:23 PM PDT
Astronomical Twilight 3:50 AM PDT 10:10 PM PDT
Moon 10:49 PM PDT (4/27) 7:09 AM PDT (4/27)
Length of Visible Light 15h 22m
Length of Day
14h 15m
Waning Gibbous, 95% of the Moon is Illuminated
Apr 27
Waning Gibbous
May 2
Last Quarter
May 9
New
May 17
First Quarter
May 24
Full

Hourly Weather History & Observations

Time (PDT) Temp. Dew Point Humidity Pressure Visibility Wind Dir Wind Speed Gust Speed Precip Events Conditions
12:53 AM 55.0 °F 35.1 °F 47% 30.13 in 10.0 mi NNW 16.1 mph - N/A   Clear
1:53 AM 55.0 °F 32.0 °F 42% 30.12 in 10.0 mi NNW 16.1 mph - N/A   Clear
2:53 AM 54.0 °F 27.0 °F 35% 30.11 in 10.0 mi NW 10.4 mph - N/A   Clear
3:53 AM 48.9 °F 26.1 °F 41% 30.11 in 10.0 mi West 8.1 mph - N/A   Clear
4:53 AM 53.1 °F 24.1 °F 32% 30.09 in 10.0 mi NNW 13.8 mph - N/A   Clear
5:53 AM 52.0 °F 25.0 °F 35% 30.09 in 10.0 mi NNW 17.3 mph - N/A   Clear
6:53 AM 50.0 °F 27.0 °F 41% 30.10 in 10.0 mi WSW 5.8 mph - N/A   Clear
7:53 AM 55.0 °F 30.0 °F 38% 30.11 in 10.0 mi West 8.1 mph - N/A   Clear
8:53 AM 57.9 °F 30.0 °F 35% 30.10 in 10.0 mi NW 17.3 mph 26.5 mph N/A   Clear
9:53 AM 64.0 °F 28.9 °F 27% 30.09 in 10.0 mi NW 21.9 mph 31.1 mph N/A   Clear
10:53 AM 68.0 °F 28.9 °F 23% 30.08 in 10.0 mi WNW 21.9 mph 27.6 mph N/A   Clear
11:53 AM 66.9 °F 28.9 °F 24% 30.08 in 10.0 mi WNW 35.7 mph 43.7 mph N/A   Clear
12:53 PM 64.9 °F 34.0 °F 32% 30.06 in 10.0 mi NNW 36.8 mph 42.6 mph N/A   Clear
1:53 PM 66.0 °F 34.0 °F 30% 30.07 in 10.0 mi NW 33.4 mph 42.6 mph N/A   Scattered Clouds
2:53 PM 64.0 °F 36.0 °F 35% 30.07 in 10.0 mi NW 28.8 mph 43.7 mph N/A   Partly Cloudy
3:53 PM 62.1 °F 37.0 °F 39% 30.09 in 10.0 mi NW 29.9 mph 38.0 mph N/A   Scattered Clouds
4:53 PM 59.0 °F 37.0 °F 44% 30.10 in 10.0 mi NNW 28.8 mph 36.8 mph N/A   Clear
5:53 PM 55.9 °F 37.0 °F 49% 30.10 in 10.0 mi NNW 20.7 mph 33.4 mph N/A   Clear
6:53 PM 54.0 °F 37.9 °F 55% 30.10 in 10.0 mi NNW 17.3 mph 25.3 mph N/A   Partly Cloudy
7:53 PM 53.1 °F 37.9 °F 57% 30.09 in 10.0 mi NNW 19.6 mph 23.0 mph N/A   Mostly Cloudy
8:53 PM 53.1 °F 37.9 °F 57% 30.09 in 10.0 mi NW 20.7 mph - N/A   Overcast
9:53 PM 51.1 °F 37.0 °F 59% 30.09 in 10.0 mi NW 18.4 mph - N/A   Mostly Cloudy
10:53 PM 52.0 °F 37.0 °F 57% 30.09 in 10.0 mi NW 21.9 mph 27.6 mph N/A   Clear
11:53 PM 51.1 °F 37.0 °F 59% 30.08 in 10.0 mi WNW 25.3 mph 35.7 mph N/A   Clear